Location: Saint-Palais-sur-Mer
(45.6429°N, 1.0859°W)
Time: 13:28:50
(UTC+02:00)

BlueWalker 3 - Visible Passes

Search period start: 11 May 2026 00:00
Search period end: 21 May 2026 00:00
Orbit: 448 x 458 km, 53.2° (Epoch: 10 May)

Date Brightness Start Highest point End Pass type
(mag) Time Alt. Az. Time Alt. Az. Time Alt. Az.
11 May 1.6 04:04:26 82° WNW 04:04:30 83° NNW 04:08:04 10° ENE visible
11 May 3.5 05:39:12 10° WNW 05:42:17 27° NNW 05:45:22 10° NE visible
12 May 2.6 03:28:44 44° ENE 03:28:44 44° ENE 03:31:18 10° ENE visible
12 May 3.4 05:02:21 11° WNW 05:05:26 30° NNW 05:08:36 10° NE visible
13 May 3.7 02:52:58 23° ENE 02:52:58 23° ENE 02:54:29 10° ENE visible
13 May 3.2 04:26:35 19° WNW 04:28:33 33° NNW 04:31:49 10° NE visible
14 May 4.4 02:17:09 13° ENE 02:17:09 13° ENE 02:17:38 10° ENE visible
14 May 2.9 03:50:46 31° WNW 03:51:42 38° NNW 03:55:03 10° NE visible
14 May 4.0 05:26:51 10° NW 05:29:46 23° N 05:32:41 10° NE visible
15 May 2.6 03:14:54 45° NNW 03:14:54 45° NNW 03:18:17 10° NE visible
15 May 4.0 04:49:56 10° WNW 04:52:52 23° N 04:55:48 10° NE visible
16 May 3.0 02:38:57 40° NNE 02:38:57 40° NNE 02:41:31 10° NE visible
16 May 3.9 04:12:58 10° WNW 04:15:57 24° N 04:18:55 10° NE visible
16 May 3.8 05:50:57 10° NW 05:54:06 29° NNE 05:57:14 10° ENE visible
17 May 3.5 02:02:55 28° NE 02:02:55 28° NE 02:04:43 10° NE visible
17 May 3.8 03:36:30 13° WNW 03:39:01 26° N 03:42:03 10° NE visible
17 May 3.9 05:14:07 10° NW 05:17:11 26° NNE 05:20:15 10° ENE visible
18 May 3.9 01:26:44 20° ENE 01:26:44 20° ENE 01:27:55 10° ENE visible
18 May 3.7 03:00:19 18° WNW 03:02:07 28° NNW 03:05:13 10° NE visible
18 May 4.0 04:37:16 10° NW 04:40:16 25° N 04:43:16 10° ENE visible
19 May 4.1 00:50:19 16° ENE 00:50:19 16° ENE 00:51:06 10° ENE visible
19 May 3.5 02:23:53 23° NW 02:25:12 30° NNW 02:28:24 10° NE visible
19 May 4.1 04:00:23 10° NW 04:03:20 24° N 04:06:16 10° ENE visible
19 May 2.7 05:37:50 10° NW 05:41:18 50° NNE 05:44:46 10° ESE visible
20 May 3.9 00:13:22 16° ENE 00:13:22 16° ENE 00:14:14 10° ENE visible
20 May 3.3 01:46:52 24° WNW 01:48:17 34° NNW 01:51:35 10° NE visible
20 May 4.2 03:23:28 10° NW 03:26:23 23° N 03:29:18 10° ENE visible
20 May 3.1 05:01:02 10° NW 05:04:25 41° NNE 05:07:48 10° E visible
20 May 2.0 23:30:38 10° SSW 23:33:58 41° SE 23:37:20 10° ENE visible
